Location: Hamayl? Da??
(36.7028°N, 30.1716°E)
Time: 00:42:01
(UTC+00:00)

Cosmos 1726 Rocket - Pass Details

Date: 04 August 2024
Orbit: 599 x 625 km, 82.5° (Epoch: 12 September)

Event Time Altitude Azimuth Distance (km) Brightness Sun altitude
Rises 18:22:27 0° 353° (N) 2,852 7.6 -14.9°
Reaches altitude 10° 18:24:40 10° 353° (N) 1,946 6.7 -15.3°
Maximum altitude 18:28:59 90° 46° (NE) 606 3.4 -16.0°
Enters shadow 18:32:01 19° 174° (S) 1,437 5.0 -16.5°
